Device Time, Air Fuel Ratio(Commanded)(:1),Air Fuel Ratio(Measured)(:1),Catalyst Temperature (Bank 1 Sensor 1)(°C),Engine Coolant Temperature(°C),Engine Load(%),Engine Load(Absolute)(%),Engine Oil Temp(°C),Engine RPM(rpm),Fuel Trim Bank 1 Short Term(%),Intake Air Temperature(°C),Mass Air Flow Rate(g/s),Timing Advance(°)
18-Jun-2020 20:54:26.051,-,-,185.8999939,87,-,-,83,-,-,46,3.4000001,-
18-Jun-2020 20:54:27.043,14.67039204,14.62822247,198.1000061,88,32.94117737,20.7843132,83,721.25,1.5625,46,2.98000002,9.5
18-Jun-2020 20:54:28.040,14.67039204,14.62822247,198.1000061,88,32.94117737,21.56862831,83,710.25,0.78125,46,3.04999995,11
18-Jun-2020 20:54:29.043,14.67039204,14.67577457,203.80000305,88,32.15686417,21.56862831,83,712.5,0.78125,47,3.06999993,11.5
18-Jun-2020 20:54:30.042,14.67039204,14.67577457,203.80000305,88,31.37254906,21.1764698,83,714,0.78125,47,3.0999999,10.5
18-Jun-2020 20:54:31.042,14.67039204,14.63943768,207.8999939,88,32.54901886,21.56862831,83,710,0.78125,47,3,11
18-Jun-2020 20:54:32.041,14.67039204,14.6587286,212,88,31.76470566,21.56862831,83,712.75,0.78125,47,3.02999997,11
18-Jun-2020 20:54:33.042,14.67039204,14.65199852,212,88,31.76470566,21.1764698,83,712.75,0.78125,47,3.02999997,11
18-Jun-2020 20:54:34.042,14.67039204,14.68788719,217.1000061,88,32.54901886,24.31372643,83,715,0.78125,47,4.23999977,11.5
18-Jun-2020 20:54:35.042,14.6318121,14.54522991,217.1000061,88,63.13725662,18.03921509,83,1105.75,1.5625,47,8.10000038,23.5
18-Jun-2020 20:54:36.041,14.6318121,14.54522991,217.1000061,88,63.13725662,18.03921509,83,1083,1.5625,47,3.8900001,23.5
18-Jun-2020 20:54:37.040,14.66769886,14.53267002,222.29998779,88,32.54901886,24.70588303,83,832,-6.25,46,5.67000008,17
18-Jun-2020 20:54:38.041,14.60534382,16.07588196,227.79998779,88,100,17.25490189,83,799.75,1.5625,46,25.12000084,6
18-Jun-2020 20:54:39.041,14.66186714,14.23972702,227.79998779,88,100,50.98039246,83,859,-2.34375,46,6.71000004,3.5
18-Jun-2020 20:54:40.041,14.6232872,14.78030109,230.70001221,88,22.74509811,24.70588303,83,1058,-1.5625,46,2.92000008,16
18-Jun-2020 20:54:41.040,14.64840889,14.78030109,230.70001221,88,22.74509811,18.8235302,83,1058,-1.5625,46,4.5,16
18-Jun-2020 20:54:42.041,14.66500759,15.22801208,238.20001221,89,30.19607925,21.56862831,83,1007,-1.5625,46,4.11000013,12.5
18-Jun-2020 20:54:43.041,14.66725063,15.11406517,238.20001221,89,28.23529434,20,83,1002.25,-0.78125,46,3.78999996,13
18-Jun-2020 20:54:44.040,14.56227779,16.02384377,242.3999939,89,38.82352829,10.1960783,83,1134.25,3.125,46,12.81000042,6.5
18-Jun-2020 20:54:45.040,14.53805256,14.90994835,242.3999939,89,78.03921509,34.90196228,83,1920,9.375,46,22.14999962,22
18-Jun-2020 20:54:46.040,14.52459335,14.43083477,248.79998779,89,73.72549438,47.05882263,83,2162.25,2.34375,46,23.07999992,23
18-Jun-2020 20:54:47.039,14.54837036,14.57932377,254.1000061,89,32.54901886,40,83,3074,0,45,22.64999962,35.5
18-Jun-2020 20:54:48.039,14.69999981,20.27575302,254.1000061,89,9.8039217,8.23529434,83,2374.5,0,45,3.52999997,39
18-Jun-2020 20:54:49.039,14.69999981,20.27575302,259.20001221,89,15.29411793,8.62745094,83,1775.25,0,45,4.01000023,38
18-Jun-2020 20:54:50.041,14.69999981,16.86543274,263.6000061,89,13.72549057,9.8039217,84,1623,0,45,2.9000001,27.5
18-Jun-2020 20:54:51.040,14.69999981,20.27575302,263.6000061,89,16.47058868,9.8039217,84,1296.5,0,45,2.70000005,21
18-Jun-2020 20:54:52.040,14.69999981,20.27575302,268.5,90,22.74509811,18.8235302,84,966.75,0,46,2.6099999,17.5
18-Jun-2020 20:54:53.039,14.67039204,13.8705225,268.5,90,30.98039246,19.6078434,84,843.5,-0.78125,46,3.3900001,20.5
18-Jun-2020 20:54:54.043,14.67039204,13.54752445,271.70001221,90,100,27.05882263,84,583.25,-5.46875,46,26.59000015,19
18-Jun-2020 20:54:55.040,14.67039204,16.88741493,271.70001221,90,100,78.4313736,84,626,2.34375,46,10.30000019,1.5
18-Jun-2020 20:54:56.040,14.64078331,15.28229332,282.6000061,90,32.54901886,14.90196037,84,1084.5,7.03125,46,6.1500001,8.5
18-Jun-2020 20:54:57.041,14.66455936,13.7085743,282.6000061,90,28.62745094,18.8235302,84,1005.75,3.125,46,4.01000023,-1.5
18-Jun-2020 20:54:58.039,14.66231728,14.22178364,300.20001221,90,30.58823586,17.25490189,84,1073.25,0.78125,45,4.44999981,8
18-Jun-2020 20:54:59.040,14.64526939,14.67487717,300.20001221,90,45.49019623,52.94117737,84,1130.5,-0.78125,45,11.38000011,5.5
18-Jun-2020 20:55:00.041,14.5600338,14.67712116,316.3999939,90,74.11764526,57.64706039,84,1338.5,3.125,45,13.22000027,17.5
18-Jun-2020 20:55:01.039,14.5600338,14.67712116,316.3999939,90,74.11764526,57.64706039,84,1655,3.125,45,12.69999981,17.5
18-Jun-2020 20:55:02.040,14.69999981,14.68160725,341.70001221,91,16.07843208,12.94117641,84,1832.25,0,45,4.11999989,34.5
18-Jun-2020 20:55:03.040,14.69999981,18.28707314,341.70001221,91,12.94117641,9.4117651,84,1668.5,0,45,2.94000006,35
18-Jun-2020 20:55:04.040,14.69999981,20.27575302,355.29998779,91,26.27450943,18.43137169,84,965.25,0,45,3.19000006,21
18-Jun-2020 20:55:05.040,14.69999981,17.20951462,367.5,91,20.3921566,14.11764717,84,987.75,0,45,2.69000006,17
18-Jun-2020 20:55:06.040,14.67039204,14.41423607,367.5,91,21.96078491,14.50980377,84,955.5,-0.78125,45,51.36000061,17.5
18-Jun-2020 20:55:07.041,14.579772,14.45506001,386.1000061,91,100,72.15686035,84,1375.25,8.59375,45,21.06999969,7
18-Jun-2020 20:55:08.040,14.53580952,14.58067036,386.1000061,91,94.11764526,63.92156982,84,1880,4.6875,45,25.70000076,12.5
18-Jun-2020 20:55:09.039,14.53356552,14.25856876,386.1000061,91,72.94117737,58.82352829,84,2257.5,5.46875,45,25.25,16
18-Jun-2020 20:55:10.040,14.69999981,13.35686588,401.20001221,90,10.58823586,9.8039217,84,2745.25,0,43,5.26000023,13.5
18-Jun-2020 20:55:11.040,14.53446293,14.25049496,413.79998779,90,59.2156868,59.60784149,84,2044,6.25,42,21.96999931,24.5
18-Jun-2020 20:55:12.040,14.53356552,14.25049496,413.79998779,90,49.01960754,45.49019623,84,2159.25,6.25,42,15.18999958,24.5
18-Jun-2020 20:55:13.039,14.5214529,14.47300339,429.29998779,90,69.80392456,57.64706039,84,2465.25,0.78125,42,27.31999969,24
18-Jun-2020 20:55:14.039,14.50889301,14.60489559,444,90,68.62744904,56.47058868,85,2684,0,42,30.28000069,27.5
18-Jun-2020 20:55:15.041,14.54074478,14.98621178,444,90,67.45098114,52.15686417,85,2934.75,-3.125,42,27.40999985,31.5
18-Jun-2020 20:55:16.040,14.5829134,14.34380436,457.79998779,90,49.01960754,50.19607925,85,3189,1.5625,42,30.13999939,36.5
18-Jun-2020 20:55:17.041,14.69999981,20.27575302,470.70001221,90,10.58823586,9.01960754,85,2878.25,0,41,4.96000004,39
18-Jun-2020 20:55:18.040,14.69999981,13.47619629,470.70001221,90,54.50980377,9.01960754,85,2592.25,0,41,35.79999924,39
18-Jun-2020 20:55:19.040,14.12353802,14.25767136,478.70001221,89,57.25490189,50.58823395,85,2755.75,-0.78125,41,26.54999924,32.5
18-Jun-2020 20:55:20.039,14.50575256,14.70986843,490.09997559,89,49.01960754,45.49019623,85,2842.25,-0.78125,40,26.07999992,35
18-Jun-2020 20:55:21.040,14.58874512,13.8705225,490.09997559,89,25.88235283,27.84313774,85,2856.75,-6.25,40,13.77999973,41.5
18-Jun-2020 20:55:22.039,14.55734158,14.72960758,490.09997559,89,39.60784531,31.76470566,86,2878.25,0.78125,39,18.97999954,37.5
18-Jun-2020 20:55:23.041,14.55913639,14.12039852,507.09997559,89,37.64706039,37.64706039,86,2895,0,39,20.95999908,37.5
18-Jun-2020 20:55:24.039,14.55958462,14.57438946,507.09997559,89,41.5686264,34.90196228,86,2922,0.78125,39,20.70999908,37.5
18-Jun-2020 20:55:25.041,14.69999981,20.27575302,519,89,12.94117641,10.98039246,86,2444.75,0,39,4.76000023,17
18-Jun-2020 20:55:26.040,13.52688885,14.66321373,527,89,42.35294342,27.05882263,86,2333.25,-7.03125,39,17.37999916,28
18-Jun-2020 20:55:27.040,14.14731503,13.59059143,532,89,42.35294342,27.05882263,86,2333.25,0.78125,39,17.37999916,40.5
18-Jun-2020 20:55:28.040,14.32541084,14.12712669,532,89,32.15686417,26.66666603,86,2328,-2.34375,40,11.38000011,40.5
18-Jun-2020 20:55:29.042,14.61072731,14.43173122,538.90002441,89,23.92156982,25.09803963,86,2321.75,-3.125,40,8.69999981,39.5
18-Jun-2020 20:55:30.039,14.60489559,15.25941467,545.20001221,89,23.92156982,22.74509811,86,2321.75,-4.6875,40,8.69999981,43
18-Jun-2020 20:55:31.041,14.58156681,14.43711472,545.20001221,89,38.4313736,36.07843018,86,2286.75,3.125,40,15.86999989,35.5
18-Jun-2020 20:55:32.040,14.58515644,14.92789268,550.90002441,89,45.09804153,35.68627548,86,2302.75,-3.125,40,15.52999973,34.5
18-Jun-2020 20:55:33.047,14.58650208,14.59233475,550.90002441,89,39.2156868,30.19607925,86,2309.5,-1.5625,40,14.18000031,35.5
18-Jun-2020 20:55:34.040,14.60399818,14.56900597,557.70001221,89,35.68627548,28.23529434,86,2333.25,-3.125,40,13.25,38
18-Jun-2020 20:55:35.042,14.61207199,14.65738106,557.70001221,89,18.8235302,21.1764698,86,2319.75,-4.6875,40,7.55000019,41.5
18-Jun-2020 20:55:36.040,14.6318121,14.36578655,563.79998779,89,12.94117641,10.5882349,86,2293.25,-4.6875,40,4.82999992,48
18-Jun-2020 20:55:37.039,14.69999981,16.09741592,567.90002441,89,11.76470566,9.01960754,86,2244,0,40,3.94000006,34.5
18-Jun-2020 20:55:38.039,14.69999981,16.09741592,567.90002441,89,12.15686321,9.01960754,86,2202.5,0,40,3.97000003,34.5
18-Jun-2020 20:55:39.042,14.69999981,20.27575302,571.20001221,89,14.50980377,10.1960783,86,1996.5,0,41,3.98000002,36
18-Jun-2020 20:55:40.039,14.69999981,20.27575302,573.20001221,89,14.50980377,10.1960783,86,1941,0,41,3.99000001,35.5
18-Jun-2020 20:55:41.041,13.55201054,14.65738106,573.20001221,89,25.49019623,18.03921509,87,1890,3.125,41,6.71000004,35.5
18-Jun-2020 20:55:42.040,13.53137589,13.18370438,573.20001221,89,39.60784531,22.74509811,87,1894,1.5625,41,9.46000004,36.5
18-Jun-2020 20:55:43.040,13.95486164,13.8238678,577.20001221,89,46.66666794,29.41176414,87,1870.75,3.125,41,12.15999985,30.5
18-Jun-2020 20:55:44.040,14.0845089,13.76330471,579.20001221,89,39.60784531,23.52941132,86,1869.75,-3.125,41,10.34000015,32.5
18-Jun-2020 20:55:45.040,14.20563316,13.81040955,579.20001221,89,29.41176605,30.19607925,86,1856,-3.125,41,11.68999958,33.5
18-Jun-2020 20:55:46.040,14.60713768,14.35905647,581.59997559,89,30.98039246,25.49019623,86,1805,-1.5625,41,8.35000038,38
18-Jun-2020 20:55:47.040,14.57438946,14.76908493,581.59997559,89,56.07843399,43.13725662,86,1801.25,0.78125,41,11.40999985,27.5
18-Jun-2020 20:55:48.040,14.55240822,14.12847328,583.20001221,89,78.4313736,54.11764526,86,1855.75,3.90625,41,19.78000069,22
18-Jun-2020 20:55:49.042,14.55868721,14.50306129,584.90002441,89,76.47058868,54.90196228,86,1915.25,0.78125,41,20.45000076,20.5
18-Jun-2020 20:55:50.040,14.56317329,14.58650208,584.90002441,89,74.50980377,54.90196228,86,1997.5,0,41,21.13999939,21
18-Jun-2020 20:55:51.040,14.56810951,14.60444546,587.70001221,89,62.35294342,51.76470566,86,2121.25,0.78125,40,20.09000015,26.5
18-Jun-2020 20:55:52.039,14.5600338,14.62777328,587.70001221,89,58.8235321,47.45098114,86,2175.5,1.5625,40,19.19000053,29
18-Jun-2020 20:55:53.039,14.5600338,14.47435093,590.40002441,89,56.86274719,45.88235474,86,2260.75,-0.78125,40,19.78000069,30
18-Jun-2020 20:55:54.039,14.55958462,14.40212345,590.40002441,89,51.76470566,45.49019623,86,2343.5,-2.34375,40,19.60000038,32
18-Jun-2020 20:55:55.040,14.69999981,14.64033413,592.40002441,89,10.58823586,8.23529434,86,2348.25,0,40,4.01000023,34
18-Jun-2020 20:55:56.040,14.69999981,20.27575302,592.40002441,89,10.1960783,7.84313726,87,2249.5,0,40,3.51999998,34
18-Jun-2020 20:55:57.039,14.69999981,20.27575302,594.09997559,89,12.94117641,9.4117651,87,2154,0,40,3.82999992,36
18-Jun-2020 20:55:58.040,14.69999981,20.27575302,594.09997559,89,14.50980377,10.1960783,87,2025.5,0,40,4.21000004,36.5
18-Jun-2020 20:55:59.039,14.69999981,20.27575302,596.90002441,89,14.90196133,10.5882349,87,1845.75,0,41,3.81999993,36
18-Jun-2020 20:56:00.042,14.69999981,20.27575302,596.90002441,89,14.90196133,10.1960783,87,1683.25,0,41,3.3900001,31
18-Jun-2020 20:56:01.039,14.69999981,20.27575302,597.79998779,89,14.50980377,10.1960783,87,1576,0,42,3.0999999,26
18-Jun-2020 20:56:02.041,14.69999981,20.27575302,597.79998779,89,15.29411793,10.1960783,87,1489.5,0,42,3.07999992,23
18-Jun-2020 20:56:03.040,14.69999981,20.27575302,597.79998779,89,15.29411793,11.37254906,87,1308.5,0,42,3.05999994,23
18-Jun-2020 20:56:04.040,14.69999981,20.27575302,598.59997559,89,18.03921509,12.54901981,87,1247.25,0,42,3.08999991,0
18-Jun-2020 20:56:05.040,14.69999981,20.1048336,598.70001221,89,21.56862831,14.50980377,87,1048.5,0,43,3.0999999,20
18-Jun-2020 20:56:06.040,13.63679886,13.95396423,598.70001221,89,30.58823586,17.25490189,87,794.75,0,43,3.03999996,21
18-Jun-2020 20:56:07.040,13.49683189,14.16660404,598.59997559,89,9.8039217,10.98039246,87,1915.75,0,43,2.5999999,-5
18-Jun-2020 20:56:08.043,14.69999981,20.27575302,598.59997559,89,9.8039217,20,87,1915.75,0,43,2.5999999,-5
18-Jun-2020 20:56:09.039,13.46004677,13.2299099,598.79998779,89,79.60784149,62.35293961,87,1639,3.90625,42,17.47999954,18.5
18-Jun-2020 20:56:10.039,14.01362896,14.26395226,599.20001221,89,76.86274719,52.15686417,87,1801,0,41,19.21999931,22
18-Jun-2020 20:56:11.039,14.31643963,14.55106163,599.20001221,89,72.94117737,47.84313583,87,1960.5,0.78125,41,19.12000084,24
18-Jun-2020 20:56:12.040,14.54478168,14.87944317,600.20001221,89,85.09803772,47.84313583,87,2171,1.5625,41,24.87000084,20
18-Jun-2020 20:56:13.040,12.24386883,13.18639565,600.20001221,89,100,94.90196228,87,2587.5,0,41,51.93999863,10.5
18-Jun-2020 20:56:14.040,12.51886654,12.9961853,601.59997559,89,100,93.33333588,87,2761.75,0,41,54.97000122,17.5
18-Jun-2020 20:56:15.040,12.44664001,12.1653614,602.29998779,89,92.54901886,80.78431702,87,3078,0,40,47.88999939,20.5
18-Jun-2020 20:56:16.040,14.69999981,20.27575302,602.29998779,89,81.5686264,9.01960754,87,2780.25,0,40,27.85000038,27
18-Jun-2020 20:56:17.040,13.56277657,12.1653614,603.5,89,16.07843208,12.94117641,87,2729,-3.125,40,8.51000023,45.5
18-Jun-2020 20:56:18.039,14.08047199,13.9723568,604.5,89,13.33333397,11.37254906,87,2668,0.78125,40,6.07000017,49.5
18-Jun-2020 20:56:19.040,14.2971487,14.43173122,604.5,89,17.25490189,13.72549057,87,2620.25,0.78125,40,7.76999998,48.5
18-Jun-2020 20:56:20.040,14.63584995,14.85925579,604.5,89,23.52941132,23.52941132,87,2550.75,0.78125,40,9.86999989,48.5
18-Jun-2020 20:56:21.040,14.57618427,14.08585548,605.5,89,34.50980377,30.19607925,87,2564.5,4.6875,41,14.27000046,37
18-Jun-2020 20:56:22.041,14.61117554,14.96826839,606.20001221,89,32.54901886,26.66666603,88,2576.25,-3.125,41,13.05000019,41
18-Jun-2020 20:56:23.039,14.59009171,14.25767136,606.20001221,89,32.54901886,26.27450943,88,2576.25,-3.125,41,13.05000019,39.5
18-Jun-2020 20:56:24.041,14.58336258,14.67577457,606.79998779,89,40,30.98039246,88,2597.5,-3.90625,41,17.25,35.5
18-Jun-2020 20:56:25.040,14.55420303,14.55106163,607.29998779,89,50.19607925,45.49019623,88,2672.75,-1.5625,41,22.56999969,33
18-Jun-2020 20:56:26.040,14.55689335,14.58111858,607.29998779,89,45.49019623,40.39215851,88,2722,-3.90625,41,21,35.5
18-Jun-2020 20:56:27.040,14.55913639,14.58111858,607.29998779,89,45.49019623,39.2156868,88,2722,-3.90625,41,21,35.5
18-Jun-2020 20:56:28.040,14.5600338,14.44877815,608.20001221,89,38.82352829,37.25490189,88,2806.25,-3.125,40,18.61000061,37
18-Jun-2020 20:56:29.039,14.58022022,14.80990887,608.79998779,89,29.41176605,24.70588303,88,2818.25,-3.125,40,13.10999966,42.5
18-Jun-2020 20:56:30.040,14.57079983,15.1279726,608.79998779,89,38.4313736,36.86274338,88,2811.5,-2.34375,40,18.40999985,37.5
18-Jun-2020 20:56:31.040,14.549716,14.65199852,609.20001221,89,63.13725662,47.45098114,88,2853.75,1.5625,40,25.87000084,36
18-Jun-2020 20:56:32.047,14.5434351,14.52010727,609.20001221,89,63.13725662,52.15686417,88,2853.75,1.5625,40,25.87000084,31
18-Jun-2020 20:56:33.039,14.60220242,14.58784771,609.90002441,89,54.50980377,49.01960754,88,3107,0.78125,40,28.70000076,34
18-Jun-2020 20:56:34.040,14.59278202,14.49274349,610.40002441,89,53.33333588,48.23529434,88,3164.5,1.5625,39,30.94000053,35
18-Jun-2020 20:56:35.039,14.55823898,14.63539982,610.40002441,89,52.15686417,45.49019623,88,3227.5,1.5625,39,28.15999985,37.5
18-Jun-2020 20:56:36.043,14.55823898,14.59816647,610.40002441,89,46.66666794,45.49019623,88,3303,1.5625,39,24.30999947,39
18-Jun-2020 20:56:37.039,14.57035255,14.59053898,611.29998779,89,45.88235474,41.17647171,88,3382,0,38,26,39.5
18-Jun-2020 20:56:38.040,14.57079983,14.57573414,611.29998779,89,43.13725662,38.82352829,88,3455.75,0,37,24.67000008,39.5
18-Jun-2020 20:56:39.039,14.56810951,14.5205574,611.90002441,89,43.52941132,39.2156868,89,3479,0.78125,37,26.25,39.5
18-Jun-2020 20:56:40.039,14.55150986,14.41961956,611.90002441,89,46.66666794,43.13725662,89,3529.75,0.78125,37,25.25,39.5
18-Jun-2020 20:56:41.040,14.55823898,14.36488914,612.70001221,89,13.72549057,36.86274338,89,3529.75,0,37,11.32999992,44.5
18-Jun-2020 20:56:42.040,14.69999981,20.27575302,613.09997559,89,10.58823586,18.03921509,89,2504.5,0,37,23.35000038,20.5
18-Jun-2020 20:56:43.040,13.49593544,12.1653614,613.09997559,89,26.66666794,23.92156792,89,2805.75,-0.78125,37,23.35000038,26
18-Jun-2020 20:56:44.040,14.01004028,14.01317978,613.40002441,89,18.4313736,17.64705849,89,2870.5,-2.34375,37,8.69999981,48.5
18-Jun-2020 20:56:45.040,14.26888752,14.74710369,613.59997559,89,19.2156868,16.86274529,89,2827,1.5625,38,9.27999973,48
18-Jun-2020 20:56:46.041,14.58156681,14.47838688,613.59997559,89,27.84313774,25.09803963,89,2803.5,3.125,38,13.35999966,44
18-Jun-2020 20:56:47.039,14.61341763,14.69282246,613.79998779,89,25.09803963,24.31372643,89,2789.25,0,38,11.94999981,44.5
18-Jun-2020 20:56:48.041,14.59771729,14.54478168,613.79998779,89,24.70588303,21.56862831,89,2778.25,2.34375,38,12.56000042,44.5
18-Jun-2020 20:56:49.039,14.57259464,14.58650208,613.90002441,89,35.29411697,36.07843018,89,2769,-1.5625,38,12.56000042,36.5
18-Jun-2020 20:56:50.042,14.58739948,14.50889301,613.90002441,89,35.68627548,34.90196228,89,2780.25,-3.90625,38,17.35000038,37.5
18-Jun-2020 20:56:51.040,14.57304382,14.59906292,614,89,34.50980377,31.76470566,89,2788.5,-5.46875,38,16,39
18-Jun-2020 20:56:52.040,14.58156681,15.14591599,614,89,27.05882454,26.27450943,89,2788.75,-3.125,37,12.56000042,43
18-Jun-2020 20:56:53.040,14.61880207,14.70986843,614,89,21.56862831,17.64705849,89,2746,-1.5625,37,10.18000031,46
18-Jun-2020 20:56:54.040,14.63091469,14.67532539,614,89,20.7843132,20,89,2722.25,0,38,8.92000008,46.5
18-Jun-2020 20:56:55.039,14.62687588,14.83772278,614,89,24.70588303,21.96078491,89,2699.25,3.125,38,11.05000019,44.5
18-Jun-2020 20:56:56.041,14.60354805,14.15763187,614,89,24.70588303,22.74509811,89,2691.75,1.5625,38,11.53999996,44
18-Jun-2020 20:56:57.040,14.60354805,14.81888103,614,89,22.74509811,22.74509811,89,2687,1.5625,38,11.43000031,44
18-Jun-2020 20:56:58.040,14.64033413,14.07284546,613.79998779,89,14.11764717,12.54901981,89,2636.5,-7.03125,38,5.73999977,49.5
18-Jun-2020 20:56:59.039,14.60399818,15.72776222,613.79998779,89,27.84313774,25.88235283,89,2612.25,2.34375,38,11.05000019,43
18-Jun-2020 20:57:00.040,14.60399818,14.70986843,613.79998779,89,41.17647171,25.88235283,89,2586.25,3.125,38,14.01000023,35.5
18-Jun-2020 20:57:01.040,14.6318121,14.84938622,613.40002441,89,20.3921566,15.29411793,89,2586.75,-3.90625,38,8.85999966,46
18-Jun-2020 20:57:02.041,14.64482021,14.95660305,613.20001221,89,16.07843208,12.94117641,89,2539.25,-3.90625,38,5.96000004,48.5
18-Jun-2020 20:57:03.040,14.64167976,14.70044804,613.20001221,89,15.29411793,14.90196037,89,2520.75,0,38,6.57999992,48.5
18-Jun-2020 20:57:04.043,14.63854122,15.13559818,612.90002441,89,20,18.03921509,89,2469.75,-0.78125,38,8.07999992,47
18-Jun-2020 20:57:05.039,14.63854122,14.29356098,612.90002441,89,9.8039217,18.03921509,89,2397.25,0,38,4.03000021,47
18-Jun-2020 20:57:06.040,14.51158428,15.19526386,612.20001221,89,48.23529434,46.27450943,89,2352.75,5.46875,39,20.30999947,34
18-Jun-2020 20:57:07.040,14.57394123,14.40750599,611.70001221,89,39.60784531,33.33333206,89,2417.5,0,38,15.52999973,35
18-Jun-2020 20:57:08.040,14.59951115,14.34111309,611.70001221,89,21.96078491,25.09803963,89,2411.75,-4.6875,38,8.69999981,38.5
18-Jun-2020 20:57:09.041,14.64033413,14.50306129,611.70001221,89,21.96078491,11.76470566,89,2411.75,-3.90625,38,8.69999981,48.5
18-Jun-2020 20:57:10.039,14.69999981,16.16380882,611.20001221,89,18.03921509,11.76470566,89,2296,0,38,5.30000019,35
18-Jun-2020 20:57:11.039,14.69999981,16.58146286,611.20001221,89,18.03921509,16.86274529,89,2296,0,38,5.30000019,40.5
18-Jun-2020 20:57:12.039,14.57438946,14.57438946,610.40002441,89,49.01960754,43.52941132,89,2331.75,0.78125,38,19.80999947,33
18-Jun-2020 20:57:13.039,14.57752991,14.50844479,610,89,44.31372452,38.82352829,90,2356.25,0,37,17.51000023,34
18-Jun-2020 20:57:14.040,14.58874512,13.82925034,610,89,26.27450943,23.52941132,90,2381,-1.5625,37,10.25,37.5
18-Jun-2020 20:57:15.040,14.59861374,14.52100563,609.90002441,89,24.70588303,21.96078491,90,2380.25,-2.34375,37,9.5,44
18-Jun-2020 20:57:16.040,14.60489559,14.71839333,609.90002441,89,24.70588303,28.62745094,90,2380.25,-2.34375,37,9.5,44
18-Jun-2020 20:57:17.041,14.59009171,14.38956261,609.70001221,89,26.66666794,26.27450943,90,2377.75,1.5625,37,10.27000046,42.5
18-Jun-2020 20:57:18.040,14.58381081,14.72871017,609.5,89,29.41176605,25.09803963,90,2384.5,2.34375,37,12.23999977,41.5
18-Jun-2020 20:57:19.042,14.58605289,14.32944965,609.5,89,36.86274719,28.62745094,90,2367.25,0,37,13.89000034,40
18-Jun-2020 20:57:20.039,14.58336258,15.02658653,609.5,89,45.49019623,35.29411697,90,2373.25,3.125,37,17.12000084,37.5
18-Jun-2020 20:57:21.039,14.62822247,14.85925579,609.29998779,89,38.82352829,34.90196228,90,2394.75,-2.34375,37,15.31999969,35.5
18-Jun-2020 20:57:22.039,14.60130501,14.7583189,609.29998779,89,37.64706039,32.15686417,90,2413.5,-2.34375,37,15.5,36
18-Jun-2020 20:57:23.040,14.58650208,15.2921629,609.29998779,89,45.88235474,40.39215851,90,2419.75,-2.34375,37,18.27000046,34
18-Jun-2020 20:57:24.040,14.57528687,14.54388428,609.29998779,89,42.35294342,39.2156868,90,2438,-0.78125,37,16.92000008,34.5
18-Jun-2020 20:57:25.041,14.58425903,14.53850079,609.40002441,89,42.35294342,37.64706039,90,2438,-0.78125,37,16.92000008,34.5
18-Jun-2020 20:57:26.041,14.59098721,14.41378784,609.59997559,89,37.25490189,34.11764526,90,2476,-1.5625,36,16.51000023,35
18-Jun-2020 20:57:27.039,14.59053898,14.50889301,609.79998779,89,38.03921509,35.68627548,90,2477.25,-3.125,36,16.03000069,35
18-Jun-2020 20:57:28.040,14.57035255,14.96737003,609.79998779,89,49.41176605,36.47058868,90,2491.75,-0.78125,36,19.29000092,34
18-Jun-2020 20:57:29.040,14.57035255,15.20513344,610,90,49.01960754,36.47058868,90,2512,-3.125,36,20.37999916,34
18-Jun-2020 20:57:30.040,14.59278202,14.54567909,610,90,40.7843132,32.54901886,90,2524.75,-3.90625,36,15.01000023,35.5
18-Jun-2020 20:57:31.040,14.58201504,14.579772,610,90,40.7843132,32.54901886,90,2524.75,-3.90625,36,15.01000023,35.5
18-Jun-2020 20:57:32.041,14.5869503,14.50216389,610.40002441,90,39.2156868,32.94117737,90,2548,-2.34375,36,16.37999916,35
18-Jun-2020 20:57:33.039,14.58470726,15.21679688,610.70001221,90,49.01960754,32.94117737,90,2575.25,-2.34375,36,21.06999969,33.5
18-Jun-2020 20:57:34.041,14.55644512,14.62822247,610.70001221,90,50.19607925,46.27450943,90,2606.25,-3.125,36,22.53000069,32.5
18-Jun-2020 20:57:35.039,14.55868721,14.53984642,610.70001221,90,50.19607925,44.31372452,90,2606.25,-2.34375,36,20.37999916,33
18-Jun-2020 20:57:36.039,14.55779076,14.60354805,611.09997559,90,45.09804153,45.88235474,90,2669.5,-3.125,35,23.70999908,34.5
18-Jun-2020 20:57:37.041,14.56272602,14.75069237,611.59997559,90,60,47.45098114,90,2740,-1.5625,35,29.85000038,30.5
18-Jun-2020 20:57:38.041,14.55554771,14.5214529,611.59997559,90,50.98039246,45.49019623,90,2799.5,-2.34375,35,22.37999916,34.5
18-Jun-2020 20:57:39.040,14.56227779,13.90686035,612,90,37.64706039,36.86274338,90,2820.75,-6.25,35,18.70999908,38.5
18-Jun-2020 20:57:40.039,14.62597942,14.91757488,612,90,17.25490189,16.07843208,90,2799.25,-5.46875,35,7.98000002,46.5
18-Jun-2020 20:57:41.040,14.64706421,15.04542828,612.40002441,90,17.25490189,16.86274529,91,2770.75,-1.5625,35,15.59000015,48
18-Jun-2020 20:57:42.040,14.5829134,14.38776779,612.59997559,90,27.05882454,24.70588303,91,2746.25,-3.90625,36,12.72999954,43